Weather History for KIML - March, 2015

Change the Weather History Date:

Wednesday, March 25, 2015

  Actual Average Record
Temperature  
Mean Temperature 40 °F 42 °F  
Max Temperature 51 °F 57 °F 85 °F (1907)
Min Temperature 29 °F 28 °F 1 °F (1996)
Degree Days  
Heating Degree Days 25 23  
Month to date heating degree days 523 649  
Cooling Degree Days 0 0  
Month to date cooling degree days 0 0  
Year to date cooling degree days 0 0  
Moisture  
Dew Point 28 °F    
Average Humidity 51    
Maximum Humidity 70    
Minimum Humidity 32    
Precipitation  
Precipitation 0.04 in 0.04 in 0.96 in (1959)
Sea Level Pressure  
Sea Level Pressure 30.14 in    
Wind  
Wind Speed 11 mph (North)    
Max Wind Speed 28 mph    
Max Gust Speed 31 mph    
Visibility 9 miles    
Events Snow    
T = Trace of Precipitation, MM = Missing Value Source: NWS Daily Summary

Daily Weather History Graph

Daily Weather History Graph

Search for Another Location

Airport or City:

Trip Planner

Search our weather history database for the weather conditions in past years. The results will help you decide how hot, cold, wet, or windy it might be!

Date:

Astronomy

Mar. 25, 2015 Rise Set
Actual Time 6:41 AM MDT 7:03 PM MDT
Civil Twilight 6:14 AM MDT 7:30 PM MDT
Nautical Twilight 5:42 AM MDT 8:03 PM MDT
Astronomical Twilight 5:09 AM MDT 8:36 PM MDT
Moon 10:29 AM MDT (3/25) 12:12 AM MDT (3/25)
Length of Visible Light 13h 16m
Length of Day
12h 21m
Waxing Crescent, 34% of the Moon is Illuminated
Mar 25
Waxing Crescent
Mar 27
First Quarter
Apr 4
Full
Apr 11
Last Quarter
Apr 18
New

Hourly Weather History & Observations

Time (MDT) Temp. Windchill Dew Point Humidity Pressure Visibility Wind Dir Wind Speed Gust Speed Precip Events Conditions
12:53 AM 51.1 °F - 32.0 °F 48% 29.90 in 10.0 mi NNW 19.6 mph - N/A   Unknown
1:53 AM 48.9 °F - 33.1 °F 54% 29.91 in 10.0 mi NNW 18.4 mph 23.0 mph N/A   Unknown
2:53 AM 46.9 °F - 34.0 °F 61% 29.93 in 10.0 mi NNW 8.1 mph - N/A   Unknown
3:53 AM 45.0 °F 41.8 °F 35.1 °F 68% 29.93 in 10.0 mi NW 5.8 mph - N/A   Unknown
4:53 AM 46.0 °F 41.4 °F 35.1 °F 66% 29.94 in 10.0 mi NW 9.2 mph - N/A   Unknown
5:53 AM 44.1 °F 40.8 °F 35.1 °F 71% 29.96 in 10.0 mi West 5.8 mph - N/A   Unknown
6:53 AM 44.1 °F 39.5 °F 35.1 °F 71% 30.02 in 10.0 mi NNW 8.1 mph - N/A   Unknown
7:53 AM 44.1 °F 36.8 °F 30.0 °F 58% 30.05 in 10.0 mi NNE 16.1 mph - N/A   Unknown
8:53 AM 43.0 °F 35.7 °F 28.0 °F 56% 30.08 in 10.0 mi NE 15.0 mph - N/A   Unknown
9:53 AM 43.0 °F 34.2 °F 26.1 °F 51% 30.14 in 10.0 mi NNE 20.7 mph - N/A   Unknown
10:53 AM 39.2 °F 29.3 °F 28.4 °F 65% 30.16 in 10.0 mi North 20.7 mph - N/A   Unknown
11:46 AM 35.1 °F 26.4 °F 32.0 °F 89% 30.19 in 2.0 mi NNE 12.7 mph - 0.02 in Snow Light Snow
11:53 AM 35.6 °F 27.1 °F 33.8 °F 93% 30.20 in 3.0 mi North 12.7 mph - N/A Snow Light Snow
12:53 PM 37.9 °F 30.0 °F 33.1 °F 83% 30.23 in 10.0 mi North 12.7 mph - 0.02 in   Unknown
1:53 PM 41.0 °F 33.9 °F 30.0 °F 65% 30.23 in 10.0 mi North 12.7 mph - N/A   Unknown
2:53 PM 45.0 °F 39.7 °F 27.0 °F 49% 30.22 in 10.0 mi North 10.4 mph - N/A   Unknown
3:53 PM 46.9 °F - 24.1 °F 41% 30.21 in 10.0 mi North 17.3 mph - N/A   Unknown
4:53 PM 50.0 °F - 21.9 °F 33% 30.19 in 10.0 mi North 18.4 mph - N/A   Unknown
5:53 PM 48.9 °F - 21.9 °F 35% 30.20 in 10.0 mi North 15.0 mph - N/A   Unknown
6:53 PM 44.1 °F 39.0 °F 23.0 °F 43% 30.23 in 10.0 mi North 9.2 mph - N/A   Unknown
7:53 PM 37.9 °F 33.5 °F 21.0 °F 51% 30.26 in 10.0 mi NNE 5.8 mph - N/A   Unknown
8:53 PM 37.0 °F 32.4 °F 21.0 °F 52% 30.28 in 10.0 mi NE 5.8 mph - N/A   Unknown
9:53 PM 33.1 °F - 21.0 °F 61% 30.30 in 10.0 mi Calm Calm - N/A   Unknown
10:53 PM 30.9 °F - 21.9 °F 69% 30.32 in 10.0 mi Calm Calm - N/A   Unknown
11:53 PM 30.9 °F 26.2 °F 21.9 °F 69% 30.33 in 10.0 mi West 4.6 mph - N/A   Unknown